Weather History for Pensacola, FL

Change the Weather History Date:

Tuesday, January 15, 2013

  Actual Average Record
Temperature  
Mean Temperature 66 °F 51 °F  
Max Temperature 75 °F 60 °F 76 °F (1950)
Min Temperature 56 °F 42 °F 21 °F (1927)
Degree Days  
Heating Degree Days 0 14  
Month to date heating degree days 100 210  
Since 1 July heating degree days 544 792  
Cooling Degree Days 1 0  
Month to date cooling degree days 22 0  
Year to date cooling degree days 22 0  
Growing Degree Days 16 (Base 50)    
Moisture  
Dew Point 67 °F    
Average Humidity 90    
Maximum Humidity 97    
Minimum Humidity 82    
Precipitation  
Precipitation 0.22 in 0.14 in 1.50 in (1991)
Month to date precipitation 0.95 2.09  
Year to date precipitation 0.95 2.09  
Snow  
Snow 0.00 in 0.00 in - ()
Month to date snowfall 0.0 0.0  
Since 1 July snowfall 0.0 0.0  
Snow Depth 0.00 in    
Sea Level Pressure  
Sea Level Pressure 30.00 in    
Wind  
Wind Speed 11 mph (South)    
Max Wind Speed 21 mph    
Max Gust Speed 28 mph    
Visibility 8 miles    
Events Rain    
T = Trace of Precipitation, MM = Missing Value Source: NWS Daily Summary

Daily Weather History Graph

Daily Weather History Graph

Search for Another Location

Airport:

Trip Planner

Search our weather history database for the weather conditions in past years. The results will help you decide how hot, cold, wet, or windy it might be!

Date:

Astronomy

Jan. 15, 2013 Rise Set
Actual Time 6:46 AM CST 5:10 PM CST
Civil Twilight 6:20 AM CST 5:36 PM CST
Nautical Twilight 5:50 AM CST 6:05 PM CST
Astronomical Twilight 5:21 AM CST 6:34 PM CST
Moon 9:13 AM CST (1/15) 9:36 PM CST (1/15)
Length of Visible Light 11h 16m
Length of Day
10h 24m
Waxing Crescent, 19% of the Moon is Illuminated
Jan 15
Waxing Crescent
Jan 18
First Quarter
Jan 26
Full
Feb 3
Last Quarter
Feb 10
New

Hourly Weather History & Observations

Time (CST) Temp. Dew Point Humidity Pressure Visibility Wind Dir Wind Speed Gust Speed Precip Events Conditions
12:53 AM 57.0 °F 55.0 °F 93% 30.06 in 4.0 mi NNW 3.5 mph - N/A   Overcast
1:53 AM 61.0 °F 57.9 °F 90% 30.04 in 4.0 mi East 6.9 mph - N/A   Overcast
2:09 AM 62.6 °F 60.8 °F 94% 30.03 in 2.5 mi East 5.8 mph - N/A   Overcast
2:37 AM 62.6 °F 60.8 °F 94% 30.02 in 3.0 mi Calm Calm - N/A   Overcast
2:53 AM 64.4 °F 62.6 °F 94% 30.02 in 4.0 mi SE 5.8 mph - N/A   Overcast
3:53 AM 70.0 °F 68.0 °F 93% 30.02 in 8.0 mi SSE 9.2 mph - N/A   Overcast
4:53 AM 70.0 °F 68.0 °F 93% 30.02 in 6.0 mi South 10.4 mph - N/A   Overcast
5:53 AM 70.0 °F 68.0 °F 93% 30.02 in 9.0 mi South 9.2 mph - 0.00 in   Overcast
6:53 AM 69.1 °F 66.9 °F 93% 30.04 in 9.0 mi South 6.9 mph - N/A   Partly Cloudy
7:06 AM 69.8 °F 66.2 °F 88% 30.03 in 9.0 mi South 6.9 mph - N/A   Scattered Clouds
7:53 AM 71.1 °F 68.0 °F 90% 30.05 in 10.0 mi SSE 9.2 mph - N/A   Mostly Cloudy
8:20 AM 71.6 °F 68.0 °F 88% 30.04 in 10.0 mi SSE 12.7 mph - N/A   Scattered Clouds
8:30 AM 71.6 °F 68.0 °F 88% 30.04 in 10.0 mi SSE 12.7 mph - N/A   Mostly Cloudy
8:53 AM 73.0 °F 69.1 °F 87% 30.05 in 10.0 mi South 12.7 mph - N/A   Mostly Cloudy
9:53 AM 73.9 °F 69.1 °F 85% 30.05 in 10.0 mi South 12.7 mph - N/A   Overcast
10:53 AM 75.0 °F 69.1 °F 82% 30.03 in 10.0 mi South 15.0 mph - N/A   Overcast
11:53 AM 73.0 °F 69.1 °F 87% 30.01 in 9.0 mi South 13.8 mph - 0.00 in Rain Light Rain
12:53 PM 75.0 °F 69.1 °F 82% 30.00 in 10.0 mi South 17.3 mph - 0.00 in   Overcast
1:53 PM 73.0 °F 68.0 °F 84% 29.98 in 9.0 mi SSW 15.0 mph - N/A   Overcast
2:44 PM 71.6 °F 69.8 °F 94% 29.97 in 2.5 mi South 13.8 mph - 0.08 in Rain Light Rain
2:46 PM 71.6 °F 69.8 °F 94% 29.97 in 3.0 mi South 12.7 mph - 0.08 in Rain Light Rain
2:53 PM 72.0 °F 70.0 °F 93% 29.98 in 7.0 mi South 11.5 mph - 0.08 in   Overcast
3:00 PM 71.6 °F 69.8 °F 94% 29.97 in 7.0 mi South 12.7 mph - N/A   Overcast
3:53 PM 73.0 °F 69.1 °F 87% 29.99 in 8.0 mi South 15.0 mph - N/A   Overcast
4:53 PM 72.0 °F 69.1 °F 91% 29.99 in 8.0 mi South 10.4 mph - N/A   Overcast
5:53 PM 71.1 °F 69.1 °F 93% 29.98 in 9.0 mi South 9.2 mph - 0.00 in   Overcast
5:55 PM 71.6 °F 69.8 °F 94% 29.97 in 9.0 mi South 10.4 mph - N/A   Overcast
6:02 PM 71.6 °F 69.8 °F 94% 29.98 in 8.0 mi South 10.4 mph - N/A   Overcast
6:53 PM 71.1 °F 68.0 °F 90% 29.97 in 10.0 mi SSE 11.5 mph - N/A   Overcast
7:53 PM 72.0 °F 68.0 °F 87% 29.97 in 10.0 mi South 13.8 mph 24.2 mph N/A   Overcast
8:00 PM 71.6 °F 68.0 °F 88% 29.96 in 10.0 mi South 15.0 mph 21.9 mph N/A   Overcast
8:07 PM 71.6 °F 68.0 °F 88% 29.96 in 10.0 mi South 16.1 mph - N/A   Overcast
8:53 PM 72.0 °F 68.0 °F 87% 29.96 in 10.0 mi South 13.8 mph 23.0 mph 0.00 in Rain Light Rain
9:19 PM 71.6 °F 68.0 °F 88% 29.96 in 7.0 mi South 20.7 mph 26.5 mph 0.00 in Rain Light Rain
9:27 PM 71.6 °F 68.0 °F 88% 29.96 in 4.0 mi SSW 16.1 mph 26.5 mph 0.01 in Rain Rain
9:53 PM 69.1 °F 66.9 °F 93% 29.98 in 2.5 mi SSW 15.0 mph - 0.08 in Rain Heavy Rain
10:01 PM 69.8 °F 66.2 °F 88% 29.96 in 5.0 mi SSW 9.2 mph - 0.02 in Rain Light Rain
10:26 PM 69.8 °F 66.2 °F 88% 29.95 in 10.0 mi South 6.9 mph - 0.02 in   Overcast
10:53 PM 69.1 °F 66.0 °F 90% 29.96 in 10.0 mi SSW 9.2 mph - 0.02 in   Overcast
11:24 PM 69.8 °F 66.2 °F 88% 29.94 in 10.0 mi South 6.9 mph - 0.04 in   Overcast
11:53 PM 69.8 °F 66.2 °F 88% 29.94 in 10.0 mi South 11.5 mph - N/A   Overcast